Wind_Speed
35 37 37 38 40 42 44 47 49 49 49 49 50 50 50 50 49 48 47 46 45 44 45 45 43 43 43 42 42 42 42 42 42 42 42 41 41 41 41 42 42 42 43
32 33 33 34 35 37 40 42 44 46 47 47 48 48 49 49 49 49 49 48 47 46 44 44 44 44 43 43 43 43 43 43 43 43 43 43 43 42 42 43 44 45 46
28 29 30 31 32 34 34 35 37 41 43 45 46 47 48 49 48 47 47 47 47 47 46 44 43 43 44 44 44 44 44 44 44 44 45 45 44 44 44 46 46 46 46
24 26 28 30 31 32 32 32 34 35 38 40 42 44 45 45 46 46 46 47 47 47 46 46 45 43 43 43 43 44 45 45 45 45 45 46 46 46 46 46 46 46 46
21 23 25 26 28 29 29 30 32 32 33 35 38 40 42 43 43 43 43 44 44 45 46 46 45 45 45 44 44 44 45 45 46 46 46 46 46 47 47 46 45 46 46
19 20 22 22 24 26 26 27 28 29 30 31 32 34 37 39 40 40 40 41 41 41 43 43 44 45 45 45 45 45 46 47 47 47 46 45 46 47 47 46 46 46 46
15 17 16 17 19 22 23 25 26 28 29 29 29 31 33 34 36 36 38 39 40 39 40 41 42 43 45 46 46 46 47 47 47 45 44 44 45 46 47 47 47 47 47
11 13 13 14 16 17 19 20 22 24 26 27 27 27 27 29 30 31 32 33 35 36 36 38 39 41 43 45 45 45 44 44 44 44 45 45 44 46 48 47 47 47 48
10 10 11 12 13 14 15 16 18 19 20 21 22 23 25 26 27 27 29 30 31 33 35 37 39 39 40 39 39 40 41 42 43 45 45 45 44 45 46 46 47 48 49
8 8 10 11 11 11 11 12 13 13 15 17 18 19 21 23 25 26 27 28 29 31 33 35 37 38 38 39 39 39 40 41 43 45 45 44 44 45 46 47 48 50 51
6 6 7 8 9 9 9 10 11 11 12 14 15 16 18 19 21 22 25 27 29 30 32 33 33 36 37 37 38 39 40 41 42 43 44 45 45 46 47 49 50 50 51
4 5 5 6 8 8 9 9 9 9 11 12 13 16 17 18 19 21 22 25 27 28 29 30 31 34 35 36 37 37 39 39 39 41 42 44 45 45 46 48 49 50 50
4 5 6 6 6 7 8 7 8 10 11 13 15 15 16 16 18 20 21 22 24 26 28 29 30 32 34 36 36 37 37 37 37 39 40 42 44 45 46 47 48 48 48
4 5 4 5 6 6 6 7 7 9 10 10 12 13 15 16 18 19 20 22 23 25 26 28 29 31 33 35 36 37 37 36 37 39 40 42 42 43 44 45 46 46 46
5 5 5 5 6 7 7 8 8 8 8 10 11 14 15 17 18 19 20 22 23 25 26 27 29 31 33 35 36 37 37 37 37 39 40 41 41 42 44 44 43 43 43
5 5 6 6 6 6 6 6 7 9 9 10 11 13 15 17 19 20 21 21 23 24 26 28 30 32 34 36 35 36 38 39 39 38 39 40 40 41 41 42 41 41 41
5 6 7 7 7 7 7 8 8 8 9 10 11 13 14 16 18 19 21 23 24 25 27 29 31 33 35 34 35 35 37 39 40 40 39 40 40 40 40 40 39 39 39
6 7 7 7 7 8 8 9 9 9 10 11 12 13 14 15 16 18 20 21 23 25 27 29 31 33 33 32 32 34 36 37 38 40 40 40 40 40 40 40 39 39 38
6 7 7 8 8 9 9 9 9 10 11 12 14 15 16 17 17 19 20 21 22 24 25 27 29 29 29 30 31 33 34 34 35 37 38 39 38 38 38 37 37 36 35
7 7 8 9 9 10 11 11 11 12 13 14 15 16 17 17 19 20 22 22 24 25 25 26 27 27 28 29 31 32 33 34 34 35 36 37 37 38 37 35 35 35 35
9 10 10 11 11 12 13 13 14 14 15 16 16 17 19 19 20 21 22 23 25 26 27 27 27 28 28 29 31 32 33 33 34 34 35 36 37 37 36 35 34 33 33
13 13 13 14 14 14 15 15 16 16 17 18 18 19 20 21 22 23 24 26 27 28 29 29 29 30 31 31 31 32 33 34 34 35 35 36 37 37 36 35 34 33 32
16 16 16 16 16 16 17 17 18 18 19 20 20 22 23 24 25 26 27 28 29 30 31 31 31 32 33 32 32 33 34 35 36 36 36 36 36 36 35 33 33 32 32
18 18 18 18 18 18 19 19 20 21 21 22 23 24 25 26 27 28 29 30 31 32 32 33 33 34 34 34 34 35 35 36 37 37 36 36 36 35 34 32 32 32 31
20 20 20 20 21 21 21 22 22 23 24 24 25 26 28 29 30 30 31 32 33 33 34 34 34 34 34 35 35 36 36 36 36 36 35 35 35 34 33 31 31 31 31
22 22 23 23 23 23 23 24 24 25 26 27 28 29 30 31 32 32 32 34 35 35 35 35 35 35 35 35 35 36 36 35 35 35 34 34 34 34 33 32 31 31 31
Wind_Direction
247 246 245 243 242 240 239 238 237 238 239 240 240 241 242 242 240 240 241 243 244 246 247 247 249 251 253 254 256 258 261 264 265 265 267 268 270 273 274 276 277 278 279
244 244 243 243 242 240 238 237 237 237 238 239 238 239 240 240 240 241 241 242 244 245 247 248 249 251 253 254 255 257 260 263 266 267 269 270 270 272 274 276 277 278 280
242 241 240 242 240 237 235 237 238 237 238 239 238 239 239 239 240 240 241 242 244 245 246 248 248 250 253 255 256 259 260 263 266 268 270 271 273 273 274 276 277 278 278
240 238 238 238 237 235 237 238 237 237 239 239 238 238 239 239 240 242 243 243 243 245 246 247 248 251 252 254 257 259 262 264 266 269 271 273 275 277 276 276 277 277 277
235 235 235 235 234 236 238 239 236 237 239 239 239 238 238 238 239 242 243 243 244 246 247 248 249 251 252 254 257 261 263 265 267 269 272 274 275 276 277 278 278 277 277
232 231 232 235 235 236 237 237 235 236 236 237 236 237 237 238 239 240 242 244 246 248 249 249 251 253 253 255 258 261 264 265 267 269 271 273 275 277 278 278 278 277 277
229 228 229 233 234 235 235 235 234 234 233 232 234 237 237 238 240 243 245 247 247 249 251 250 253 254 256 258 260 261 264 266 267 270 272 273 276 277 278 279 279 279 279
226 227 230 234 232 232 233 235 233 232 230 229 232 235 235 238 241 244 245 247 248 249 252 253 254 256 258 260 263 264 265 268 268 270 272 274 275 277 279 280 280 280 280
227 230 232 231 228 226 230 231 227 225 222 226 230 233 236 237 241 245 246 251 253 254 256 255 256 258 259 262 264 267 268 268 268 269 271 273 276 278 280 280 281 282 284
221 223 225 221 218 215 213 212 214 216 221 227 232 234 235 238 241 245 249 254 257 258 259 259 258 258 259 262 265 268 268 269 271 271 272 275 277 279 279 280 280 281 284
209 213 212 212 209 212 214 216 212 217 222 224 228 233 237 241 245 250 255 258 259 258 260 262 264 261 261 264 266 269 270 272 273 274 275 276 278 278 278 279 280 282 283
203 205 203 205 210 214 216 216 217 220 223 226 233 238 242 245 250 256 259 260 260 261 262 264 266 267 266 268 269 271 273 274 275 276 277 278 279 280 279 280 281 282 283
212 209 211 214 216 215 217 221 228 236 242 242 243 244 246 253 259 264 264 264 265 266 266 267 269 272 273 273 272 273 274 274 277 280 280 280 281 281 281 281 281 282 283
225 215 214 220 223 218 222 229 239 245 248 248 249 252 255 262 268 270 270 271 272 272 273 273 275 278 280 278 275 275 275 276 279 281 282 283 283 283 283 283 284 283 283
237 226 230 235 234 232 236 242 250 256 259 260 262 264 265 269 272 276 277 278 277 275 276 278 280 282 283 282 279 277 277 278 280 281 282 283 285 287 286 285 285 284 284
243 240 239 243 246 246 251 263 266 265 268 272 276 276 275 277 278 280 281 282 282 281 282 283 285 286 287 284 281 281 280 280 281 281 283 284 286 287 288 288 286 285 286
242 247 253 252 254 256 261 264 266 277 279 279 284 287 286 285 284 283 283 285 287 288 289 290 289 290 291 288 284 283 284 283 283 282 283 285 286 286 286 287 286 287 288
250 250 253 257 257 259 262 267 270 276 283 284 287 292 295 298 298 295 292 291 293 294 295 295 295 294 293 290 289 288 287 284 284 283 283 284 284 284 285 286 286 286 288
256 260 261 262 264 265 268 272 274 278 285 288 290 291 293 295 299 300 299 297 298 299 299 301 300 298 296 294 293 293 292 290 288 286 286 286 286 287 287 286 286 286 288
260 264 266 268 268 269 271 274 275 278 283 288 291 292 295 295 298 301 301 300 300 302 303 304 303 302 299 296 296 296 296 295 291 288 289 289 289 290 290 288 287 286 288
263 266 267 270 271 273 272 273 275 278 283 286 290 293 295 296 299 302 304 304 304 305 307 307 306 304 301 299 299 300 300 299 294 290 290 290 290 290 291 289 287 287 287
267 267 268 271 273 274 273 275 277 280 284 287 290 292 295 297 299 302 304 305 305 306 307 307 306 305 304 302 301 302 302 300 299 295 293 293 293 292 292 290 286 286 284
268 269 269 271 272 273 274 276 279 282 285 288 291 294 296 298 300 301 302 304 305 305 304 304 304 304 304 302 302 303 302 301 300 298 296 296 296 295 292 289 285 283 284
270 271 270 269 270 272 274 277 280 282 286 289 291 293 295 297 299 300 302 304 305 305 304 302 302 303 303 302 301 301 301 301 300 299 298 298 298 297 294 290 285 283 283
270 271 270 270 271 273 275 278 281 283 285 288 291 293 295 296 298 300 301 304 306 306 305 304 305 305 304 303 302 302 302 302 300 299 299 299 298 297 295 291 287 283 282
269 270 271 271 272 274 276 278 281 283 285 288 291 294 296 296 297 299 300 303 305 305 305 305 305 305 305 304 304 305 306 304 302 300 300 300 299 297 295 292 289 286 283
Height
5689 5691 5694 5697 5700 5704 5708 5713 5717 5722 5726 5730 5735 5739 5743 5747 5751 5755 5759 5762 5765 5767 5770 5773 5775 5777 5779 5781 5783 5784 5784 5784 5784 5785 5785 5785 5785 5784 5783 5782 5780 5778 5776
5681 5683 5686 5689 5692 5695 5699 5703 5707 5712 5716 5720 5725 5729 5733 5737 5742 5746 5749 5752 5755 5758 5761 5764 5766 5769 5771 5772 5774 5775 5775 5776 5775 5776 5776 5776 5777 5775 5774 5772 5770 5768 5766
5674 5676 5679 5682 5685 5688 5692 5696 5699 5703 5707 5711 5716 5720 5724 5728 5733 5736 5740 5743 5746 5749 5752 5755 5757 5760 5762 5763 5765 5766 5766 5767 5767 5766 5766 5765 5766 5765 5765 5762 5759 5757 5754
5668 5670 5673 5675 5678 5682 5685 5689 5692 5695 5699 5702 5707 5711 5716 5720 5724 5727 5731 5734 5737 5740 5742 5745 5748 5750 5753 5754 5755 5756 5756 5757 5757 5756 5756 5755 5754 5753 5753 5752 5748 5745 5742
5663 5665 5667 5670 5673 5676 5680 5682 5685 5688 5691 5695 5699 5703 5707 5711 5714 5718 5721 5724 5727 5730 5733 5736 5738 5741 5743 5745 5746 5746 5746 5746 5746 5746 5745 5744 5742 5740 5739 5739 5738 5734 5731
5659 5661 5663 5665 5668 5671 5674 5676 5679 5682 5685 5688 5692 5695 5699 5702 5706 5709 5712 5716 5718 5721 5723 5726 5728 5730 5732 5734 5735 5735 5735 5735 5735 5735 5734 5733 5731 5730 5728 5726 5724 5722 5721
5656 5657 5660 5662 5664 5666 5669 5671 5674 5676 5679 5682 5685 5688 5691 5694 5698 5701 5704 5706 5709 5711 5714 5716 5718 5720 5722 5723 5723 5724 5724 5724 5724 5724 5723 5722 5720 5718 5716 5713 5711 5709 5708
5654 5655 5657 5658 5660 5662 5664 5666 5668 5671 5673 5676 5678 5681 5684 5687 5690 5693 5695 5697 5700 5702 5704 5705 5707 5709 5710 5712 5712 5713 5713 5713 5713 5713 5712 5710 5709 5707 5704 5701 5698 5696 5695
5652 5653 5654 5656 5657 5659 5661 5662 5664 5666 5668 5670 5672 5675 5678 5681 5683 5685 5687 5689 5691 5693 5694 5695 5696 5698 5700 5701 5702 5702 5703 5702 5702 5702 5701 5699 5697 5695 5692 5688 5685 5682 5679
5651 5652 5653 5654 5655 5657 5657 5658 5659 5661 5663 5666 5668 5670 5673 5675 5677 5679 5680 5681 5682 5683 5684 5685 5687 5689 5690 5691 5692 5692 5692 5691 5690 5689 5688 5686 5684 5682 5679 5676 5673 5669 5665
5650 5651 5652 5653 5654 5655 5656 5656 5657 5659 5660 5663 5665 5667 5668 5670 5671 5672 5673 5674 5675 5676 5676 5677 5678 5679 5680 5681 5681 5681 5680 5679 5678 5677 5675 5674 5672 5669 5666 5663 5660 5656 5652
5650 5651 5651 5652 5653 5654 5655 5655 5656 5657 5659 5660 5662 5663 5664 5666 5667 5667 5667 5668 5668 5668 5669 5669 5669 5670 5670 5671 5671 5670 5669 5667 5666 5664 5663 5661 5659 5656 5653 5650 5647 5643 5639
5650 5650 5651 5651 5652 5653 5654 5654 5655 5655 5656 5657 5658 5660 5661 5661 5662 5662 5662 5662 5661 5661 5662 5662 5661 5661 5661 5660 5659 5659 5657 5656 5654 5652 5651 5649 5646 5643 5640 5637 5633 5630 5626
5649 5650 5650 5650 5651 5652 5652 5653 5653 5654 5654 5655 5655 5656 5656 5657 5657 5656 5656 5656 5655 5655 5654 5654 5654 5652 5651 5650 5648 5647 5646 5645 5643 5642 5639 5637 5634 5631 5628 5624 5621 5617 5614
5648 5649 5649 5650 5650 5650 5651 5652 5652 5652 5652 5652 5652 5652 5652 5652 5651 5651 5650 5649 5649 5648 5648 5647 5646 5644 5643 5641 5639 5637 5635 5634 5632 5630 5628 5625 5622 5619 5616 5612 5609 5605 5601
5647 5647 5647 5648 5648 5649 5649 5649 5650 5650 5649 5649 5649 5648 5648 5647 5647 5646 5645 5644 5642 5642 5641 5640 5638 5636 5634 5631 5628 5626 5624 5622 5621 5619 5616 5613 5611 5607 5604 5600 5596 5593 5590
5645 5645 5645 5646 5646 5647 5647 5647 5647 5647 5647 5647 5646 5645 5644 5643 5642 5641 5640 5638 5637 5635 5634 5632 5629 5627 5624 5621 5618 5615 5613 5611 5609 5607 5605 5602 5599 5596 5593 5589 5585 5582 5579
5643 5643 5643 5644 5644 5644 5645 5645 5645 5645 5644 5644 5643 5642 5641 5639 5638 5636 5634 5632 5630 5628 5626 5624 5621 5618 5615 5612 5609 5606 5603 5600 5598 5596 5593 5590 5587 5584 5581 5578 5575 5572 5568
5641 5641 5641 5641 5642 5642 5642 5642 5642 5642 5641 5640 5639 5638 5637 5636 5634 5631 5629 5627 5624 5622 5619 5616 5613 5609 5606 5603 5600 5597 5594 5591 5588 5585 5582 5579 5576 5574 5571 5567 5564 5561 5558
5639 5639 5639 5639 5639 5639 5639 5639 5639 5638 5638 5637 5635 5634 5633 5631 5629 5627 5624 5621 5618 5615 5612 5609 5605 5601 5598 5596 5592 5589 5585 5582 5578 5575 5572 5569 5566 5562 5559 5556 5553 5551 5548
5637 5636 5636 5636 5636 5635 5635 5635 5635 5634 5634 5632 5631 5630 5628 5626 5624 5622 5619 5616 5613 5609 5606 5602 5598 5595 5591 5588 5584 5580 5576 5572 5568 5565 5562 5558 5555 5551 5548 5545 5543 5541 5539
5633 5633 5632 5632 5632 5631 5631 5631 5630 5629 5628 5627 5626 5624 5623 5621 5619 5616 5613 5609 5606 5603 5599 5595 5591 5587 5583 5579 5575 5571 5567 5563 5559 5555 5551 5548 5544 5540 5537 5535 5533 5531 5528
5628 5628 5628 5627 5627 5626 5626 5625 5625 5624 5623 5622 5620 5618 5617 5614 5612 5609 5606 5602 5599 5595 5592 5588 5584 5580 5575 5571 5567 5562 5558 5553 5549 5545 5541 5537 5533 5529 5526 5524 5523 5521 5518
5623 5623 5622 5622 5622 5621 5620 5620 5619 5618 5617 5616 5614 5612 5610 5607 5605 5602 5598 5595 5591 5587 5583 5579 5575 5571 5567 5562 5558 5554 5549 5544 5539 5535 5531 5527 5523 5520 5517 5514 5513 5511 5508
5618 5617 5617 5616 5616 5615 5614 5613 5612 5611 5610 5609 5607 5605 5602 5600 5597 5594 5590 5587 5583 5578 5574 5570 5566 5562 5557 5553 5548 5544 5539 5535 5530 5526 5522 5517 5514 5510 5507 5505 5503 5501 5499
5611 5611 5610 5610 5609 5608 5607 5606 5605 5604 5603 5601 5599 5597 5594 5591 5589 5585 5582 5578 5574 5569 5565 5560 5556 5552 5548 5543 5539 5534 5529 5525 5521 5517 5513 5509 5505 5501 5499 5496 5494 5492 5490